SSEC Globe Logo

Space Science and Engineering Center

Wisconsin State Observations

ASUS43 KMKX 161920                                              2024168 1920
RWRWI
WISCONSIN REGIONAL WEATHER ROUNDUP
NATIONAL WEATHER SERVICE MILWAUKEE/SULLIVAN WI
NOTE: "FAIR" INDICATES FEW OR NO CLOUDS BELOW 12,000 FEET WITH NO
SIGNIFICANT WEATHER AND/OR OBSTRUCTIONS TO VISIBILITY.

CITY           SKY/WX    TMP DP  RH WIND       PRES   REMARKS
SUPERIOR ARPT  CLOUDY    57  54  88 NE5       29.62F TC  14
ASHLAND        CLOUDY    77  67  71 S14G26    29.63S TC  25
HAYWARD        CLOUDY    74  67  78 S13G21    29.66S TC  23
SIREN          PTSUNNY   80  68  67 SW8       29.62F HX  83  TC  27
CUMBERLAND     CLOUDY    77  70  78 S16       29.66S TC  25
RICE LAKE      CLOUDY    78  68  71 S14       29.67F TC  25
CHETEK         CLOUDY    80  71  74 S13G18    29.67F HX  83  TC  26
LADYSMITH      CLOUDY    74  68  83 S8        29.72S TC  23
EAU CLAIRE     PTSUNNY   81  70  69 S13G23    29.67F HX  84  TC  27
MENOMONIE      CLOUDY    82  71  69 S13G22    29.66F HX  86  TC  28
NEW RICHMOND   CLOUDY    82  71  68 S15G21    29.63F HX  86  TC  28
OSCEOLA        PTSUNNY   84  73  67 S17G23    29.63F HX  90  TC  29


CITY           SKY/WX    TMP DP  RH WIND       PRES   REMARKS
MANITOWISH WTR CLOUDY    69  69 100 S10       29.73F TC  20
ARBOR VITAE    CLOUDY    68  65  91 S10G17    29.74F TC  20
WOODRUFF       CLOUDY    68  65  91 S10G17    29.74F TC  20
RHINELANDER    CLOUDY    69  63  81 S7G16     29.76F TC  21
EAGLE RIVER    CLOUDY    66  66 100 S6        29.77S TC  19
LAND O LAKES   CLOUDY    66  65  96 S9        29.78S TC  19
PHILLIPS       CLOUDY    72  67  85 S7        29.71F TC  22
TOMAHAWK       CLOUDY    72  65  79 S8        29.76F TC  22
MEDFORD        CLOUDY    74  70  86 S13G18    29.74F TC  23
MERRILL        CLOUDY    70  68  93 S8        29.75F TC  21


CITY           SKY/WX    TMP DP  RH WIND       PRES   REMARKS
WAUSAU         MOSUNNY   76  66  71 S14       29.75F TC  24
MOSINEE        PTSUNNY   75  68  78 S10       29.71F TC  24
MARSHFIELD     MOSUNNY   78  70  76 S10       29.75F HX  80  TC  26
STEVENS POINT  NOT AVBL
WAUPACA        PTSUNNY   80  68  67 S12G17    29.79F HX  83  TC  27
WAUTOMA        PTSUNNY   81  72  74 S12G17    29.77F HX  84  TC  27
WISC RAPIDS    MOSUNNY   80  69  69 SW13G20   29.76F HX  83  TC  27
CAMP DOUGLAS   MOSUNNY   83  69  62 S10       29.71F HX  87  TC  28


CITY           SKY/WX    TMP DP  RH WIND       PRES   REMARKS
ANTIGO         PTSUNNY   69  67  92 S12       29.79F TC  21
SHAWANO        PTSUNNY   76  69  80 SW8       29.79F TC  24
OCONTO         CLOUDY    68  66  94 S7        29.80F TC  20
STURGEON BAY   CLOUDY    65  59  81 S22G29    29.83S TC  18
GREEN BAY      PTSUNNY   75  66  73 S14       29.81S TC  24
MANITOWOC      LGT RAIN  66  57  72 S21       29.86R TC  19
APPLETON       PTSUNNY   79  68  69 S14       29.82S HX  81  TC  26
CLINTONVILLE   PTSUNNY   78  67  70 S12       29.80F HX  80  TC  25
OSHKOSH        PTSUNNY   78  68  71 S16       29.80F HX  80  TC  26


CITY           SKY/WX    TMP DP  RH WIND       PRES   REMARKS
LA CROSSE      MOSUNNY   86  70  58 S14       29.69F HX  90  TC  30
SPARTA         MOSUNNY   84  71  64 SW10G21   29.70F HX  89  TC  29
VIROQUA        MOSUNNY   83  69  63 SW18      29.76F HX  86  TC  28
BOSCOBEL       MOSUNNY   88  73  61 VRB6G21   29.75F HX  95  TC  31
PRAIRIE DU CHI MOSUNNY   86  70  59 S12       29.74F HX  91  TC  30
PLATTEVILLE    PTSUNNY   85  71  64 SW20      29.80F HX  90  TC  29

CITY           SKY/WX    TMP DP  RH WIND       PRES   REMARKS
REEDSBURG      SUNNY     84  71  65 S15       29.76F HX  90  TC  29
BARABOO/DELLS  MOSUNNY   86  71  61 S16G23    29.77F HX  91  TC  30
LONE ROCK      MOSUNNY   87  73  62 SW12      29.75F HX  94  TC  31
MINERAL POINT  MOSUNNY   84  70  61 SW20      29.82F HX  88  TC  29
MADISON        PTSUNNY   87  70  56 SW8       29.78F HX  92  TC  31
MIDDLETON      MOSUNNY   88  78  72 SW14G21   29.79F HX 100  TC  31
WATERTOWN      MOSUNNY   84  71  64 S10       29.80F HX  89  TC  29
MONROE         MOSUNNY   87  69  54 S20G32    29.81F HX  90  TC  30
JANESVILLE     MOSUNNY   88  72  58 SW12G20   29.81F HX  94  TC  31


CITY           SKY/WX    TMP DP  RH WIND       PRES   REMARKS
MILWAUKEE      PTSUNNY   78  63  59 SE10      29.82F HX  80  TC  26
WAUKESHA       SUNNY     81  66  61 SE12      29.83F HX  83  TC  27
MILWAUKEE/TIMM SUNNY     79  64  61 SE9       29.84F HX  81  TC  26
RACINE         MOSUNNY   80  63  55 S21G29    29.85F HX  81  TC  27
KENOSHA        MOSUNNY   92  69  47 S13G24    29.82F HX  97  TC  33
FOND DU LAC    PTSUNNY   77  68  73 S10       29.81F TC  25
SHEBOYGAN      PTSUNNY   67  58  72 S17G28    29.84F TC  19
WEST BEND      NOT AVBL
JUNEAU         MOSUNNY   81  69  67 SW10      29.83S HX  84  TC  27
LSZ147-162-162000-
LAKE SUPERIOR

STATION/POSITION TIME  TEMP    WIND        PRES    WAVE
                       AIR SEA DIR/SP/G            HT/PER
                 (UTC) (F)     (DEG/KT/KT) (MB)    (FT/S)
W MID LAKE BUOY  1900   49 40  140/  8/ 10 1004.0
DEVILS ISLAND    1900   61     120/  5/  6 1002.4F
PORT WING        1830   56      20/  8/ 11 1003.0S
SAXON HARBOR     1840   77     180/  9/ 19 1003.0F

LMZ867-665-643>646-162000-
LAKE MICHIGAN

STATION/POSITION TIME  TEMP    WIND        PRES    WAVE
                       AIR SEA DIR/SP/G            HT/PER
                 (UTC) (F)     (DEG/KT/KT) (MB)    (FT/S)
CHAMBERS ISLAND  1840   65                   N/A
N MID LAKE BUOY  1900      55  170/ 14/ 16   N/A
NORTHPORT PIER   1800   63     110/ 15/ 22 1010.8
KEWAUNEE LAKESHO 1848          180/ 13/ 18 1009.4S
SHEBOYGAN LAKESH 1900   61     180/ 15/ 15 1010.2R
PORT WASHINGTON  1840   64     160/  4/  6 1011.5F
ATWATER BUOY     1830   63 59  200/ 10/ 14 1010.4F   3/ 5
MILWAUKEE LAKESH 1900   68     130/  9/  9   N/A
S MID LAKE BUOY  1900   66 59  150/ 14/ 16 1011.4
KENOSHA   LAKESH 1900   70     160/  9/ 10 1010.2
TC  - TEMPERATURE IN CELSIUS
VSB - VISIBILITY IN STATUTE MILES
WCI - WIND CHILL INDEX
HX  - HEAT INDEX